Location: Observatory
(52.1446°N, 0.4624°W)
Time: 04:49:35
(UTC+00:00)

ISS - Pass Details

Date: 07 December 2019
Orbit: 411 x 421 km, 51.6° (Epoch: 15 December)

Event Time Altitude Azimuth Distance (km) Brightness Sun altitude
Rises 16:33:36 0° 277° (W) 2,356 1.0 -6.4°
Reaches altitude 10° 16:35:42 10° 276° (W) 1,494 0.0 -6.6°
Maximum altitude 16:39:02 71° 193° (SSW) 445 -3.5 -7.1°
Drops below altitude 10° 16:42:23 10° 108° (ESE) 1,497 -1.4 -7.5°
Enters shadow 16:43:44 - 106° (ESE) 2,052 -0.7 -7.7°
